Date String (YYYY-MM-DD hh:mm:ss) UTC,Instrument flags,Ambient pressure (hPa),Sample flow (lpm),Bypass flow (lpm),Sample temperature (°C),Ambient temperature (°C),ASC tube jacket temperature (°C),LED temperature (°C),Box temperature (°C),Sample RH (%),Span deviation,Mass concentration (μg/m³),Mass concentration (μg/m³),Mass concentration (μg/m³)
DateTimeUTC,F1_M11,P_M11,Q1_M11,Q2_M11,T1_M11,T2_M11,T3_M11,T4_M11,T5_M11,U1_M11,ZSPAN_M11,X0_M11,X2_M11,X1_M11
2022-02-14 12:00:00,,0828.8,5.01,0.00,22.5,21.7,00.0,31.4,24.3,08.4,0000.0,0007.70,0004.20,0003.75
2022-02-14 12:01:00,,0828.5,4.99,0.00,22.5,21.7,00.0,31.4,24.3,08.4,0000.0,0007.72,0004.25,0003.81
2022-02-14 12:02:00,,0828.5,4.99,0.00,22.5,21.7,00.0,31.4,24.3,08.3,0000.0,0007.76,0004.31,0003.87
2022-02-14 12:03:00,,0828.5,5.02,0.00,22.5,21.7,00.0,31.4,24.3,08.3,0000.0,0007.74,0004.38,0003.94
2022-02-14 12:04:00,,0828.5,5.00,0.00,22.5,21.7,00.0,31.4,24.3,08.4,0000.0,0007.79,0004.43,0003.98
2022-02-14 12:05:00,,0828.6,5.01,0.00,22.5,21.6,00.0,31.4,24.3,08.5,0000.0,0007.84,0004.48,0004.04
2022-02-14 12:06:00,,0828.4,5.00,0.00,22.5,21.6,00.0,31.4,24.2,08.6,0000.0,0007.86,0004.51,0004.09
2022-02-14 12:07:00,,0828.5,4.99,0.00,22.5,21.6,00.0,31.4,24.2,08.6,0000.0,0008.15,0004.54,0004.11
2022-02-14 12:08:00,,0828.9,5.01,0.00,22.5,21.6,00.0,31.4,24.2,08.6,0000.0,0008.16,0004.55,0004.13
2022-02-14 12:09:00,,0828.9,4.99,0.00,22.4,21.6,00.0,31.4,24.2,08.7,0000.0,0008.01,0004.53,0004.15
2022-02-14 12:10:00,,0828.8,4.99,0.00,22.4,21.6,00.0,31.4,24.2,08.7,0000.0,0008.31,0004.60,0004.19
2022-02-14 12:11:00,,0828.5,5.02,0.00,22.4,21.6,00.0,31.4,24.2,08.8,0000.0,0008.40,0004.67,0004.24
2022-02-14 12:12:00,,0828.9,4.98,0.00,22.4,21.6,00.0,31.4,24.2,08.8,0000.0,0008.51,0004.71,0004.26
2022-02-14 12:13:00,,0829.0,5.01,0.00,22.4,21.6,00.0,31.4,24.2,08.7,0000.0,0008.67,0004.77,0004.28
2022-02-14 12:14:00,,0828.5,5.00,0.00,22.4,21.6,00.0,31.4,24.2,08.8,0000.0,0008.73,0004.79,0004.28
2022-02-14 12:15:00,,0828.5,5.00,0.00,22.4,21.6,00.0,31.4,24.2,08.8,0000.0,0008.70,0004.78,0004.30
2022-02-14 12:16:00,,0828.5,4.99,0.00,22.4,21.6,00.0,31.4,24.1,08.7,0000.0,0008.68,0004.79,0004.31
2022-02-14 12:17:00,,0828.4,5.01,0.00,22.4,21.6,00.0,31.4,24.2,08.7,0000.0,0008.70,0004.83,0004.34
2022-02-14 12:18:00,,0828.4,5.01,0.00,22.4,21.6,00.0,31.4,24.2,08.8,0000.0,0008.52,0004.85,0004.37
2022-02-14 12:19:00,,0828.4,4.99,0.00,22.4,21.6,00.0,31.4,24.2,08.8,0000.0,0008.89,0004.89,0004.39
2022-02-14 12:20:00,,0828.3,4.99,0.00,22.4,21.6,00.0,31.3,24.2,08.8,0000.0,0009.28,0004.94,0004.40
2022-02-14 12:21:00,,0828.3,5.02,0.00,22.4,21.6,00.0,31.3,24.1,08.8,0000.0,0008.67,0004.89,0004.40
2022-02-14 12:22:00,,0828.3,5.01,0.00,22.4,21.6,00.0,31.3,24.1,08.8,0000.0,0008.49,0004.86,0004.39
2022-02-14 12:23:00,,0828.4,4.99,0.00,22.3,21.5,00.0,31.3,24.1,08.8,0000.0,0009.12,0004.87,0004.39
2022-02-14 12:24:00,,0828.4,5.02,0.00,22.3,21.5,00.0,31.3,24.1,08.8,0000.0,0009.37,0004.85,0004.37
2022-02-14 12:25:00,,0828.4,5.00,0.00,22.3,21.5,00.0,31.3,24.1,08.8,0000.0,0009.41,0004.85,0004.36
2022-02-14 12:26:00,,0828.4,4.99,0.00,22.3,21.5,00.0,31.3,24.1,08.9,0000.0,0009.45,0004.85,0004.35
2022-02-14 12:27:00,,0828.3,5.00,0.00,22.3,21.5,00.0,31.3,24.1,08.8,0000.0,0009.61,0004.85,0004.36
2022-02-14 12:28:00,,0828.4,5.01,0.00,22.3,21.5,00.0,31.3,24.1,08.8,0000.0,0009.85,0004.82,0004.35
2022-02-14 12:29:00,,0828.3,5.00,0.00,22.3,21.5,00.0,31.3,24.1,08.9,0000.0,0009.87,0004.85,0004.36
2022-02-14 12:30:00,,0828.3,5.01,0.00,22.3,21.5,00.0,31.3,24.1,08.9,0000.0,0009.54,0004.85,0004.38
2022-02-14 12:31:00,,0828.2,5.01,0.00,22.3,21.5,00.0,31.3,24.0,08.8,0000.0,0009.26,0004.85,0004.39
2022-02-14 12:32:00,,0828.2,4.99,0.00,22.3,21.4,00.0,31.3,24.0,08.8,0000.0,0009.17,0004.84,0004.38
2022-02-14 12:33:00,,0828.3,5.01,0.00,22.3,21.4,00.0,31.3,24.0,08.9,0000.0,0009.22,0004.85,0004.39
2022-02-14 12:34:00,,0828.3,4.99,0.00,22.3,21.8,00.0,31.3,24.1,09.0,0000.0,0008.66,0004.87,0004.39
2022-02-14 12:35:00,,0828.2,4.98,0.00,22.4,22.5,00.0,31.3,24.3,08.9,0000.0,0008.32,0004.87,0004.41
2022-02-14 12:36:00,,0828.2,5.01,0.00,22.5,23.1,00.0,31.4,24.5,08.8,0000.0,0008.22,0004.85,0004.42
2022-02-14 12:37:00,,0828.3,5.01,0.00,22.6,23.0,00.0,31.4,24.6,08.6,0000.0,0008.71,0004.87,0004.43
2022-02-14 12:38:00,,0828.2,5.00,0.00,22.6,22.8,00.0,31.4,24.6,08.4,0000.0,0008.73,0004.82,0004.39
2022-02-14 12:39:00,,0828.3,5.00,0.00,22.6,22.6,00.0,31.4,24.6,08.8,0000.0,0008.38,0004.82,0004.38
2022-02-14 12:40:00,,0828.4,5.00,0.00,22.6,22.5,00.0,31.4,24.5,08.8,0000.0,0008.43,0004.81,0004.39
2022-02-14 12:41:00,,0828.4,5.01,0.00,22.6,22.3,00.0,31.4,24.5,09.0,0000.0,0008.42,0004.80,0004.39
2022-02-14 12:42:00,,0828.4,5.00,0.00,22.6,22.2,00.0,31.4,24.4,09.0,0000.0,0008.51,0004.79,0004.40
2022-02-14 12:43:00,,0828.4,4.99,0.00,22.6,22.0,00.0,31.4,24.3,09.0,0000.0,0008.57,0004.81,0004.42
2022-02-14 12:44:00,,0828.4,5.01,0.00,22.6,22.0,00.0,31.4,24.3,09.0,0000.0,0008.65,0004.86,0004.44
2022-02-14 12:45:00,,0828.5,4.99,0.00,22.5,21.9,00.0,31.4,24.3,09.0,0000.0,0008.85,0004.89,0004.47
2022-02-14 12:46:00,,0828.4,5.02,0.00,22.5,21.9,00.0,31.4,24.3,09.0,0000.0,0008.95,0004.90,0004.48
2022-02-14 12:47:00,,0828.4,4.99,0.00,22.5,21.8,00.0,31.4,24.3,09.0,0000.0,0009.19,0004.94,0004.49
2022-02-14 12:48:00,,0828.4,5.01,0.00,22.5,21.8,00.0,31.4,24.3,09.0,0000.0,0009.01,0004.96,0004.50
2022-02-14 12:49:00,,0828.4,4.99,0.00,22.5,21.8,00.0,31.4,24.3,09.0,0000.0,0008.65,0004.99,0004.54
2022-02-14 12:50:00,,0828.5,5.00,0.00,22.5,21.8,00.0,31.4,24.3,09.0,0000.0,0008.74,0005.03,0004.57
2022-02-14 12:51:00,,0828.4,5.00,0.00,22.5,21.8,00.0,31.4,24.2,08.9,0000.0,0009.26,0005.05,0004.55
2022-02-14 12:52:00,,0828.4,4.99,0.00,22.4,21.7,00.0,31.4,24.2,08.9,0000.0,0009.53,0005.04,0004.52
2022-02-14 12:53:00,,0828.3,5.01,0.00,22.4,21.7,00.0,31.4,24.2,08.9,0000.0,0009.38,0005.01,0004.48
2022-02-14 12:54:00,,0828.3,5.00,0.00,22.4,21.7,00.0,31.4,24.2,08.8,0000.0,0009.45,0005.01,0004.46
2022-02-14 12:55:00,,0828.3,5.00,0.00,22.4,21.7,00.0,31.4,24.2,08.9,0000.0,0009.35,0004.95,0004.44
2022-02-14 12:56:00,,0828.2,5.01,0.00,22.4,21.7,00.0,31.4,24.2,08.9,0000.0,0009.47,0004.91,0004.42
2022-02-14 12:57:00,,0828.2,4.98,0.00,22.4,21.7,00.0,31.4,24.2,08.9,0000.0,0010.35,0004.90,0004.40
2022-02-14 12:58:00,,0828.3,5.00,0.00,22.4,21.7,00.0,31.4,24.2,08.9,0000.0,0011.16,0004.88,0004.38
2022-02-14 12:59:00,,0828.3,5.01,0.00,22.4,21.6,00.0,31.4,24.2,09.0,0000.0,0011.12,0004.86,0004.37
